This is the latest recevied weather packets stored in our database for station/object KC3DGM. If no packets are shown the sender has not sent any weather packets the latest 10 day(s).
| Time | Temp. | Humidity | Pressure | Rain* | Wind** | Luminosity | Snow |
|---|---|---|---|---|---|---|---|
| 1778047083 | 10.56° C | 99% | 978.8 hPa | 1.78 mm | - | 0 W/m² | - |
| 1778046780 | 10.56° C | 99% | 978.8 hPa | 0 mm | - | 0 W/m² | - |
| 1778046477 | 10.56° C | 99% | 979 hPa | 0 mm | - | 0 W/m² | - |
| 1778046174 | 10.56° C | 99% | 979 hPa | 1.27 mm | - | 0 W/m² | - |
| 1778045870 | 10.56° C | 99% | 978.9 hPa | 1.27 mm | - | 0 W/m² | - |
| 1778045569 | 10.56° C | 99% | 979.2 hPa | 1.78 mm | - | 0 W/m² | - |
| 1778045267 | 10.56° C | 99% | 979.1 hPa | 1.78 mm | - | 0 W/m² | - |
| 1778044965 | 10.56° C | 99% | 979.5 hPa | 1.78 mm | - | 0 W/m² | - |
| 1778044662 | 10.56° C | 99% | 979.4 hPa | 1.78 mm | - | 0 W/m² | - |
| 1778044358 | 10.56° C | 99% | 979.4 hPa | 1.27 mm | - | 0 W/m² | - |
| 1778044056 | 10.56° C | 99% | 979.7 hPa | 1.27 mm | - | 0 W/m² | - |
| 1778043753 | 10.56° C | 99% | 979.3 hPa | 1.78 mm | - | 0 W/m² | - |
| 1778043450 | 10.56° C | 99% | 979.5 hPa | 1.78 mm | - | 0 W/m² | - |
| 1778043146 | 10.56° C | 99% | 979.7 hPa | 0 mm | - | 0 W/m² | - |
| 1778042844 | 10.56° C | 99% | 980 hPa | 1.27 mm | - | 0 W/m² | - |
| 1778042541 | 10.56° C | 99% | 979.7 hPa | 1.27 mm | - | 0 W/m² | - |
| 1778042238 | 10.56° C | 99% | 979.9 hPa | 0 mm | - | 0 W/m² | - |
| 1778041936 | 10.56° C | 99% | 979.7 hPa | 0 mm | - | 0 W/m² | - |
| 1778041635 | 11.11° C | 99% | 980.1 hPa | 0 mm | - | 0 W/m² | - |
| 1778041333 | 11.11° C | 99% | 979.7 hPa | 0 mm | - | 0 W/m² | - |
| 1778041031 | 11.11° C | 99% | 979.7 hPa | 1.78 mm | - | 0 W/m² | - |
| 1778040728 | 11.11° C | 99% | 979.6 hPa | 4.83 mm | - | 0 W/m² | - |
| 1778040426 | 11.11° C | 99% | 979.5 hPa | 10.16 mm | - | 0 W/m² | - |
| 1778040122 | 10.56° C | 99% | 979.4 hPa | 7.87 mm | - | 0 W/m² | - |
| 1778039819 | 10.56° C | 99% | 979.6 hPa | 3.56 mm | - | 0 W/m² | - |
* Rain latest hour (hover to see other rain measurements)
** Current wind speed in m/s (hover to see current wind gust speed)